User: anonymous   Login
Location: Warszawa
(52.2500°N, 21.0000°E)
Time: 16:40:18
(UTC+02:00)
Language:

Transit 2A Rocket - Orbit

View from above orbital plane
View from above orbital plane
View from above satellite
View from above satellite

Ground track
Ground track

The orbit data is extracted from the following two-line orbital elements,

1    47U 60007C   24199.18800534  .00000979  00000-0  23263-3 0  9992
2    47  66.6654 126.0356 0230500 291.2040  66.4580 14.43655883350135
Epoch (UTC): 17 July 2024 04:30:43
Eccentricity: 0.0230500
inclination: 66.6654°
perigee height: 582 km
apogee height: 910 km
right ascension of ascending node: 126.0356°
argument of perigee: 291.2040°
revolutions per day: 14.43655883
mean anomaly at epoch: 66.4580°
orbit number at epoch: 35013

The dashed part of the orbit path shows where the satellite is in the earth's shadow,  

DLR